User: anonymous   Login
Location: Saddleback Butte
(34.6776°N, 117.8050°W)
Time: 14:47:18
(UTC-08:00)
Language:

Cosmos 1862 Rocket - Orbit

View from above orbital plane
View from above orbital plane
View from above satellite
View from above satellite

Ground track
Ground track

The orbit data is extracted from the following two-line orbital elements,

1 18153U 87055B   14355.80029631  .00000766  00000-0  91466-4 0  5322
2 18153 082.5002 237.1401 0021731 191.1803 196.3602 14.82805476483739
Epoch (UTC): 21 December 2014 19:12:25
Eccentricity: 0.0021731
inclination: 82.5002°
perigee height: 605 km
apogee height: 635 km
right ascension of ascending node: 237.1401°
argument of perigee: 191.1803°
revolutions per day: 14.82805476
mean anomaly at epoch: 196.3602°
orbit number at epoch: 48373

The dashed part of the orbit path shows where the satellite is in the earth's shadow,  

DLR